Regional Weather Roundup
Issued by NWS Raleigh/Durham, NC

Home | Current Version | Previous Version | Text Only | Print | Product List | Glossary On
Versions: 1 2 3 4 5 6 7 8 9 10 11 12 13 14 15 16 17 18 19 20 21 22 23 24 25 26 27 28 29 30 31 32 33 34 35 36 37 38 39 40 41 42 43 44 45 46 47 48 49 50
000
ASUS42 KRAH 242310
RWRRAH
NORTH CAROLINA WEATHER ROUNDUP
NATIONAL WEATHER SERVICE RALEIGH NC
700 PM EDT THU MAY 24 2018

NOTE: "FAIR" INDICATES FEW OR NO CLOUDS BELOW 12,000 FEET WITH NO
SIGNIFICANT WEATHER AND/OR OBSTRUCTIONS TO VISIBILITY.

NCZ001-053-055-056-065-067-250000-
WESTERN NORTH CAROLINA

CITY           SKY/WX    TMP DP  RH WIND       PRES   REMARKS
ASHEVILLE      CLOUDY    73  64  73 SE7       30.18R
JEFFERSON      FAIR      67  61  80 SE3       30.24R
MORGANTON      FAIR      76  67  73 CALM      30.19S
HICKORY        FAIR      76  66  71 NE3       30.14R
RUTHERFORDTON  PTSUNNY   76  68  77 NE3       30.15S
MOUNT AIRY     NOT AVBL
BOONE          PTSUNNY   67  60  77 CALM      30.25R
$$

NCZ021-022-025-041-071-084-088-250000-
CENTRAL NORTH CAROLINA

CITY           SKY/WX    TMP DP  RH WIND       PRES   REMARKS
CHARLOTTE      PTSUNNY   81  68  64 E9        30.11R
GREENSBORO     PTSUNNY   80  62  54 E10       30.13R
WINSTON-SALEM  FAIR      80  63  55 VRB6      30.15R
RALEIGH-DURHAM FAIR      82  56  40 E8        30.13R
FORT BRAGG     PTSUNNY   79  67  66 S8        30.11R
FAYETTEVILLE   FAIR      78  64  61 S13       30.11R
BURLINGTON     FAIR      81  60  48 E7        30.13R
LAURINBURG     CLOUDY    74  71  91 S7        30.12F
$$

NCZ011-015-027-028-043-044-047-080-103-250000-
NORTHEASTERN NORTH CAROLINA

CITY           SKY/WX    TMP DP  RH WIND       PRES   REMARKS
ROCKY MT-WILSO FAIR      82  59  45 VRB5      30.12R
GREENVILLE     FAIR      81  59  47 E7        30.14R
WASHINGTON     FAIR      79  60  51 SE7       30.14R
ELIZABETH CITY FAIR      78  59  51 E6        30.13F
MANTEO         FAIR      73  61  66 E6        30.15R
CAPE HATTERAS  FAIR      75  58  55 E7        30.14R
$$

NCZ078-087-090-091-093-098-101-250000-
SOUTHEASTERN NORTH CAROLINA

CITY           SKY/WX    TMP DP  RH WIND       PRES   REMARKS
LUMBERTON      CLOUDY    74  71  91 S6        30.11S
GOLDSBORO      FAIR      82  62  51 E8        30.11R
KINSTON        SUNNY     82  59  44 SE7       30.13R
KENANSVILLE    FAIR      77  68  73 S3        30.12S
NEW BERN       FAIR      77  58  51 E7        30.14R
CHERRY POINT   MOSUNNY   80  63  55 E9        30.13S
BEAUFORT       FAIR      77  62  59 E7        30.13R
JACKSONVILLE   FAIR      78  63  59 SE9       30.12R
WILMINGTON     CLOUDY    75  66  73 E10       30.12S
$$




USA.gov is the U.S. government's official web portal to all federal, state and local government web resources and services.